Port Isabel, TX

6:15 PM CST on November 18, 2017 (GMT -0600)
Port Isabel-Cameron County

Weather History for KPIL - March, 2013

Change the Weather History Date:

Wednesday, March 6, 2013

  Actual Average (KBRO) Record (KBRO)
Temperature  
Mean Temperature 58 °F -  
Max Temperature 68 °F 74 °F 92 °F (1922)
Min Temperature 48 °F 57 °F 33 °F (1989)
Degree Days  
Heating Degree Days 7    
Growing Degree Days 8 (Base 50)    
Moisture  
Dew Point 45 °F    
Average Humidity 60    
Maximum Humidity 78    
Minimum Humidity 47    
Precipitation  
Precipitation 0.00 in - - ()
Sea Level Pressure  
Sea Level Pressure 30.29 in    
Wind  
Wind Speed 8 mph (NE)    
Max Wind Speed 17 mph    
Max Gust Speed 22 mph    
Visibility 9 miles    
Events      
Averages and records for this station are not official NWS values.
T = Trace of Precipitation, MM = Missing Value Source: NWS Daily Summary

Daily Weather History Graph

Daily Weather History Graph

Search for Another Location

Airport or City:

Trip Planner

Search our weather history database for the weather conditions in past years. The results will help you decide how hot, cold, wet, or windy it might be!

Date:

Astronomy

Mar. 06, 2013 Rise Set
Actual Time 6:47 AM CST 6:33 PM CST
Civil Twilight 6:24 AM CST 6:56 PM CST
Nautical Twilight 5:57 AM CST 7:23 PM CST
Astronomical Twilight 5:31 AM CST 7:50 PM CST
Moon 2:34 AM CST (3/6) 1:39 PM CST (3/6)
Length of Visible Light 12h 32m
Length of Day
11h 46m
Waning Crescent, 29% of the Moon is Illuminated
Mar 6
Waning Crescent
Mar 11
New
Mar 19
First Quarter
Mar 27
Full
Apr 2
Last Quarter

Hourly Weather History & Observations

Time (CST) Temp. Dew Point Humidity Pressure Visibility Wind Dir Wind Speed Gust Speed Precip Events Conditions
12:53 AM 54.0 °F 37.9 °F 55% 30.30 in 10.0 mi NW 5.8 mph - N/A   Clear
1:53 AM 50.0 °F 37.9 °F 63% 30.29 in 10.0 mi NNW 8.1 mph - N/A   Clear
2:53 AM 48.9 °F 37.9 °F 66% 30.28 in 10.0 mi NNW 3.5 mph - N/A   Clear
3:53 AM 51.1 °F 39.0 °F 63% 30.29 in 10.0 mi NW 5.8 mph - N/A   Clear
4:53 AM 50.0 °F 39.0 °F 66% 30.30 in 10.0 mi NW 6.9 mph - N/A   Clear
5:53 AM 48.9 °F 39.0 °F 69% 30.32 in 10.0 mi NW 5.8 mph - N/A   Clear
6:53 AM 48.0 °F 37.9 °F 68% 30.34 in 9.0 mi NW 8.1 mph - N/A   Clear
7:53 AM 53.1 °F 39.9 °F 61% 30.35 in 8.0 mi NNW 8.1 mph - N/A   Clear
8:53 AM 63.0 °F 44.1 °F 50% 30.35 in 8.0 mi North 10.4 mph - N/A   Clear
9:53 AM 66.9 °F 46.9 °F 49% 30.36 in 8.0 mi NNE 13.8 mph 21.9 mph N/A   Clear
10:53 AM 68.0 °F 46.9 °F 47% 30.37 in 8.0 mi NNE 17.3 mph 21.9 mph N/A   Clear
11:53 AM 68.0 °F 46.9 °F 47% 30.36 in 8.0 mi ENE 13.8 mph 19.6 mph 0.00 in   Clear
12:53 PM 68.0 °F 46.9 °F 47% 30.33 in 8.0 mi ENE 9.2 mph - N/A   Scattered Clouds
1:53 PM 68.0 °F 48.0 °F 49% 30.30 in 8.0 mi ENE 13.8 mph - N/A   Scattered Clouds
2:53 PM 66.9 °F 48.0 °F 51% 30.28 in 8.0 mi East 10.4 mph - N/A   Scattered Clouds
3:53 PM 66.9 °F 48.0 °F 51% 30.26 in 8.0 mi ENE 11.5 mph 17.3 mph N/A   Clear
4:53 PM 66.0 °F 48.0 °F 52% 30.24 in 8.0 mi ENE 12.7 mph - N/A   Clear
5:53 PM 64.0 °F 48.9 °F 58% 30.24 in 8.0 mi ENE 9.2 mph - N/A   Clear
6:53 PM 62.1 °F 48.9 °F 62% 30.24 in 9.0 mi East 5.8 mph - N/A   Clear
7:53 PM 61.0 °F 50.0 °F 67% 30.24 in 10.0 mi East 6.9 mph - N/A   Clear
8:53 PM 61.0 °F 51.1 °F 70% 30.26 in 10.0 mi East 3.5 mph - N/A   Clear
9:53 PM 60.1 °F 51.1 °F 72% 30.25 in 10.0 mi East 4.6 mph - N/A   Clear
10:53 PM 60.1 °F 52.0 °F 75% 30.24 in 10.0 mi East 5.8 mph - 0.00 in   Clear
11:53 PM 60.1 °F 53.1 °F 78% 30.22 in 10.0 mi East 5.8 mph - N/A   Clear